Location: Newark
(62.0667°S, 149.1667°W)
Time: 16:13:22
(UTC+00:00)

N. Korean satellite - Visible Passes

Search period start: 17 September 2019 00:00
Search period end: 27 September 2019 00:00
Orbit: 455 x 508 km, 97.2° (Epoch: 16 September)

Date Brightness Start Highest point End Pass type
(mag) Time Alt. Az. Time Alt. Az. Time Alt. Az.
17 Sep 8.7 05:23:28 10° S 05:26:56 33° WSW 05:30:23 10° NW visible
17 Sep 10.5 06:59:11 10° SW 06:59:22 10° SW 06:59:34 10° SW visible
17 Sep 9.6 13:03:29 10° E 13:06:09 19° SE 13:08:53 10° S visible
17 Sep 6.6 14:35:26 10° NNE 14:39:06 89° ESE 14:42:53 10° SSW visible
18 Sep 7.8 04:58:07 10° S 05:01:50 50° WSW 05:05:32 10° NW visible
18 Sep 10.1 06:32:34 10° SSW 06:34:30 14° SW 06:36:26 10° WSW visible
18 Sep 10.1 12:39:12 10° ESE 12:41:13 14° SE 12:43:15 10° SSE visible
18 Sep 7.4 14:10:19 10° NE 14:13:54 55° ESE 14:17:37 10° S visible
19 Sep 6.9 04:32:49 10° SSE 04:36:40 80° WSW 04:40:28 10° NNW visible
19 Sep 9.8 06:06:53 10° S 06:09:34 19° SW 06:12:15 10° W visible
19 Sep 10.4 12:15:34 10° SE 12:16:20 10° SE 12:17:05 10° SSE visible
19 Sep 8.4 13:45:24 10° NE 13:48:48 36° ESE 13:52:17 10° S visible
20 Sep 9.2 05:41:23 10° S 05:44:34 26° SW 05:47:46 10° WNW visible
20 Sep 9.2 13:20:41 10° ENE 13:23:45 25° SE 13:26:52 10° S visible
20 Sep 6.6 14:53:12 10° N 14:56:53 65° WNW 15:00:39 10° SSW visible
21 Sep 8.4 05:15:58 10° S 05:19:31 37° WSW 05:23:03 10° NW visible
21 Sep 10.4 06:50:56 10° SSW 06:52:01 11° SW 06:53:06 10° WSW visible
21 Sep 9.8 12:56:12 10° E 12:58:45 18° SE 13:01:21 10° S visible
21 Sep 6.8 14:27:56 10° NNE 14:31:38 78° ESE 14:35:26 10° SSW visible
22 Sep 7.5 04:50:37 10° S 04:54:24 58° WSW 04:58:08 10° NW visible
22 Sep 10.1 06:24:55 10° S 06:27:07 15° SW 06:29:18 10° W visible
22 Sep 10.2 12:32:01 10° ESE 12:33:49 13° SE 12:35:39 10° SSE visible
22 Sep 7.8 14:02:52 10° NE 14:06:27 49° ESE 14:10:09 10° S visible
23 Sep 9.7 05:59:18 10° S 06:02:10 20° SW 06:05:01 10° W visible
23 Sep 8.7 13:38:00 10° ENE 13:41:21 32° ESE 13:44:47 10° S visible
24 Sep 9.0 05:33:49 10° S 05:37:09 28° WSW 05:40:27 10° WNW visible
24 Sep 9.4 13:13:21 10° ENE 13:16:19 23° SE 13:19:21 10° S visible
24 Sep 6.6 14:45:39 10° NNE 14:49:22 76° WNW 14:53:12 10° SSW visible
25 Sep 8.2 05:08:26 10° S 05:12:04 42° WSW 05:15:40 10° NW visible
25 Sep 10.3 06:43:07 10° SSW 06:44:38 12° SW 06:46:08 10° WSW visible
25 Sep 10.0 12:48:56 10° E 12:51:21 16° SE 12:53:47 10° S visible
25 Sep 7.1 14:20:26 10° NNE 14:24:09 68° ESE 14:27:57 10° SSW visible
26 Sep 7.3 04:43:06 10° SSE 04:46:55 66° WSW 04:50:41 10° NNW visible
26 Sep 10.0 06:17:17 10° S 06:19:42 16° SW 06:22:07 10° W visible
26 Sep 10.4 12:24:52 10° ESE 12:26:26 12° SE 12:27:59 10° SSE visible
26 Sep 8.1 13:55:25 10° NE 13:58:59 43° ESE 14:02:38 10° S visible
